Tracking 19908 objects as of 18-Oct-2019
HD Live streaming from Space Station
objects crossing your sky now

SL-8 R/B

Track SL-8 R/B now!
10-day predictions


NORAD ID: 15006
Int'l Code: 1984-052J
Perigee: 1,478.3 km
Apogee: 1,688.9 km
Inclination: 74.0 °
Period: 117.7 minutes
Semi major axis: 7954 km
RCS: 6.198 m2 (large)
Launch date: May 28, 1984
Source: Commonwealth of Independent States (former USSR) (CIS)
Launch site: PLESETSK MISSILE AND SPACE COMPLEX (PKMTR)

Note: This is a ROCKET BODY
aabbcc
Your satellite tracking list
Your tracking list is empty




NASA's NSSDC Master Catalog

Two Line Element Set (TLE):
1 15006U 84052J   19290.78607751 -.00000070 +00000-0 -50096-3 0  9995
2 15006 074.0133 057.2065 0132372 162.3655 349.6230 12.23691306580826
Source of the keplerian elements: AFSPC